COSMOS 2251 DEB, 34610

Orbit data source: Space-Track

COSMOS 2251 DEB, 34610 is space debris in LEO originally from a launch on Wed, 16 Jun 1993 UTC launched from the Plesetsk Missile And Space Complex (PKMTR). The debris from Iridium 33, an American commercial communications satellite, has been tracked extensively since its accidental collision with the defunct Russian satellite Cosmos 2251 in 2009. This event, occurring at high speed in low Earth orbit (LEO), generated thousands of pieces of space debris, significantly increasing the risk of further collisions. The Iridium 33 debris cloud has impacted space traffic management and orbital debris mitigation strategies, making it a subject of ongoing study in space situational awareness.

Loading next visibility...
Identifier
34610, 1993-036WF
Orbit
LEO
Country
Flag of CISCIS
Related business
Manufacturer
Unknown
Mission
Spacecraft
Bus & Motor
Unknown
Mass
Unknown
Launch date (UTC)
1993-06-16 (33 years ago)
Launch vehicle
Unknown
Launch site
Plesetsk Missile And Space Complex (PKMTR)
Object type
Payload
Rocket body
Debris
Shape & HBR
Unknown shape, 0.1 m
Radar Cross Section
Small (<0.1 m²)

Expand to show TLE details & history
Last TLE update: 2 days ago

TLE from 2 days ago
0 COSMOS 2251 DEB
1 34610U 93036WF  26205.06040112  .00001499  00000-0  76973-3 0  9992
2 34610  74.0154 230.2571 0181662 309.9777  48.5527 14.08098254887020
Epoch: 2026-07-24T01:26Z
TLE epoch observation values (Epoch: 2026-07-24T01:26:58.656Z)
Latitude
-0.00003°
Longitude
-93.27976°
Altitude
782.711 km
Speed
7.507 km/s
True Right ascension
15h 21m 01s
True Declination
0° 00' 00"
Sunlit
Object was in daylight at epoch
Visualization orbit readout
Latitude
Unknown
Longitude
Unknown
Altitude
Unknown
Speed
Unknown
Apparent Right ascension
Unknown
Apparent Declination
Unknown
Sunlit
N/A
Visualization observer readout
Local Sidereal Time
14:09:05
Azimuth
Unknown
Elevation
Unknown
Doppler factor
Unknown
Orbital elements
Apogee altitude
995.096 km
Perigee altitude
731.989 km
Semi-major axis
7,241.679 km
Eccentricity
0.01817
Inclination
74.0154°
RAAN
230.2571°
Arg. of periapsis
309.9777°
True anomaly
50.13666°
Mean anomaly
48.5527°
Eccentric anomaly
49.3423°
Mean motion
3.52196 °/min
Orbital period
102.22 mins
BSTAR
0.00076973

Documentation

Showing up to 5 results
|